sat.trackr.live / text

‹ back to catalog

STARLINK-11599 [DTC]

NORAD 63670 · 2025-085G

PAYLOAD ACTIVE UNKNOWN

§ Identity

Operator
Country
US
Launch date
2025-04-28
Launch site
AFETR
Launch vehicle
Mass (kg)
RCS (m²)

Purposes: comms

External: N2YO · Heavens-Above · Gunter

§ Orbital elements

Epoch: 2026-05-25T01:50:15.763776Z

Period
91.67 min
Inclination
43.0014°
Eccentricity
0.0001411
Mean motion
15.70886722 rev/d
Perigee alt
355.4 km
Apogee alt
357.3 km
Semi-major
6,734.5 km
B*
1.1101e-3
RAAN
178.1480°
Arg perigee
242.5882°
Mean anomaly
117.4842°
Rev number
6,225

§ Raw data

STARLINK-11599 [DTC]1 63670U 25085G   26145.07657134  .00144781  00000+0  11101-2 0  99932 63670  43.0014 178.1480 0001411 242.5882 117.4842 15.70886722 62251

JSON: /api/v1/satellites/63670 · /tle

For live sub-satellite position, see the globe view (requires WebGL).

§ Visibility from observer

Set your observer location to see the next 7 days of passes ≥ 10°. The values pass through the URL so the page stays shareable.

No JS? Fill the form by hand. The geolocation button needs JavaScript.